Year,Month,Day,Hour,Minute,Value (Times are PST for temperature in C)
2009,08,12,00,00,14.00
2009,08,12,00,01,14.00
2009,08,12,00,02,14.00
2009,08,12,00,03,13.90
2009,08,12,00,04,13.90
2009,08,12,00,05,13.90
2009,08,12,00,06,13.90
2009,08,12,00,07,13.80
2009,08,12,00,08,13.80
2009,08,12,00,09,13.80
2009,08,12,00,10,13.80
2009,08,12,00,11,13.80
2009,08,12,00,12,13.70
2009,08,12,00,13,13.70
2009,08,12,00,14,13.70
2009,08,12,00,15,13.70
2009,08,12,00,16,13.70
2009,08,12,00,17,13.70
2009,08,12,00,18,13.70
2009,08,12,00,19,13.70
2009,08,12,00,20,13.70
2009,08,12,00,21,13.70
2009,08,12,00,22,13.70
2009,08,12,00,23,13.70
2009,08,12,00,24,13.70
2009,08,12,00,25,13.70
2009,08,12,00,26,13.70
2009,08,12,00,27,13.70
2009,08,12,00,28,13.70
2009,08,12,00,29,13.70
2009,08,12,00,30,13.70
2009,08,12,00,31,13.70
2009,08,12,00,32,13.70
2009,08,12,00,33,13.70
2009,08,12,00,34,13.70
2009,08,12,00,35,13.60
2009,08,12,00,36,13.60
2009,08,12,00,37,13.50
2009,08,12,00,38,13.50
2009,08,12,00,39,13.50
2009,08,12,00,40,13.40
2009,08,12,00,41,13.40
2009,08,12,00,42,13.30
2009,08,12,00,43,13.30
2009,08,12,00,44,13.30
2009,08,12,00,45,13.30
2009,08,12,00,46,13.30
2009,08,12,00,47,13.30
2009,08,12,00,48,13.30
2009,08,12,00,49,13.30
2009,08,12,00,50,13.30
2009,08,12,00,51,13.30
2009,08,12,00,52,13.30
2009,08,12,00,53,13.30
2009,08,12,00,54,13.30
2009,08,12,00,55,13.30
2009,08,12,00,56,13.30
2009,08,12,00,57,13.20
2009,08,12,00,58,13.20
2009,08,12,00,59,13.30
2009,08,12,01,00,13.30
2009,08,12,01,01,13.30
2009,08,12,01,02,13.30
2009,08,12,01,03,13.30
2009,08,12,01,04,13.20
2009,08,12,01,05,13.20
2009,08,12,01,06,13.20
2009,08,12,01,07,13.20
2009,08,12,01,08,13.20
2009,08,12,01,09,13.20
2009,08,12,01,10,13.20
2009,08,12,01,11,13.20
2009,08,12,01,12,13.10
2009,08,12,01,13,13.10
2009,08,12,01,14,13.10
2009,08,12,01,15,13.10
2009,08,12,01,16,13.10
2009,08,12,01,17,13.10
2009,08,12,01,18,13.00
2009,08,12,01,19,13.00
2009,08,12,01,20,13.00
2009,08,12,01,21,13.00
2009,08,12,01,22,12.90
2009,08,12,01,23,12.90
2009,08,12,01,24,12.90
2009,08,12,01,25,12.90
2009,08,12,01,26,12.90
2009,08,12,01,27,12.90
2009,08,12,01,28,12.90
2009,08,12,01,29,12.80
2009,08,12,01,30,12.80
2009,08,12,01,31,12.80
2009,08,12,01,32,12.80
2009,08,12,01,33,12.80
2009,08,12,01,34,12.80
2009,08,12,01,35,12.80
2009,08,12,01,36,12.80
2009,08,12,01,37,12.80
2009,08,12,01,38,12.80
2009,08,12,01,39,12.80
2009,08,12,01,40,12.80
2009,08,12,01,41,12.80
2009,08,12,01,42,12.80
2009,08,12,01,43,12.80
2009,08,12,01,44,12.80
2009,08,12,01,45,12.80
2009,08,12,01,46,12.80
2009,08,12,01,47,12.80
2009,08,12,01,48,12.80
2009,08,12,01,49,12.80
2009,08,12,01,50,12.80
2009,08,12,01,51,12.80
2009,08,12,01,52,12.80
2009,08,12,01,53,12.80
2009,08,12,01,54,12.80
2009,08,12,01,55,12.70
2009,08,12,01,56,12.70
2009,08,12,01,57,12.70
2009,08,12,01,58,12.70
2009,08,12,01,59,12.60
2009,08,12,02,00,12.60
2009,08,12,02,01,12.60
2009,08,12,02,02,12.50
2009,08,12,02,03,12.50
2009,08,12,02,04,12.40
2009,08,12,02,05,12.40
2009,08,12,02,06,12.30
2009,08,12,02,07,12.30
2009,08,12,02,08,12.30
2009,08,12,02,09,12.30
2009,08,12,02,10,12.20
2009,08,12,02,11,12.20
2009,08,12,02,12,12.20
2009,08,12,02,13,12.20
2009,08,12,02,14,12.20
2009,08,12,02,15,12.20
2009,08,12,02,16,12.30
2009,08,12,02,17,12.30
2009,08,12,02,18,12.30
2009,08,12,02,19,12.30
2009,08,12,02,20,12.40
2009,08,12,02,21,12.40
2009,08,12,02,22,12.50
2009,08,12,02,23,12.50
2009,08,12,02,24,12.60
2009,08,12,02,25,12.60
2009,08,12,02,26,12.60
2009,08,12,02,27,12.70
2009,08,12,02,28,12.70
2009,08,12,02,29,12.80
2009,08,12,02,30,12.80
2009,08,12,02,31,12.80
2009,08,12,02,32,12.80
2009,08,12,02,33,12.80
2009,08,12,02,34,12.80
2009,08,12,02,35,12.80
2009,08,12,02,36,12.80
2009,08,12,02,37,12.80
2009,08,12,02,38,12.90
2009,08,12,02,39,12.90
2009,08,12,02,40,12.90
2009,08,12,02,41,12.90
2009,08,12,02,42,12.90
2009,08,12,02,43,12.90
2009,08,12,02,44,12.90
2009,08,12,02,45,12.90
2009,08,12,02,46,12.90
2009,08,12,02,47,12.90
2009,08,12,02,48,12.90
2009,08,12,02,49,12.90
2009,08,12,02,50,12.90
2009,08,12,02,51,12.90
2009,08,12,02,52,12.90
2009,08,12,02,53,12.90
2009,08,12,02,54,12.90
2009,08,12,02,55,12.90
2009,08,12,02,56,12.90
2009,08,12,02,57,12.90
2009,08,12,02,58,13.00
2009,08,12,02,59,13.00
2009,08,12,03,00,13.00
2009,08,12,03,01,13.00
2009,08,12,03,02,13.00
2009,08,12,03,03,13.00
2009,08,12,03,04,13.00
2009,08,12,03,05,13.00
2009,08,12,03,06,12.90
2009,08,12,03,07,12.90
2009,08,12,03,08,12.80
2009,08,12,03,09,12.70
2009,08,12,03,10,12.60
2009,08,12,03,11,12.60
2009,08,12,03,12,12.60
2009,08,12,03,13,12.50
2009,08,12,03,14,12.50
2009,08,12,03,15,12.50
2009,08,12,03,16,12.40
2009,08,12,03,17,12.40
2009,08,12,03,18,12.40
2009,08,12,03,19,12.30
2009,08,12,03,20,12.30
2009,08,12,03,21,12.30
2009,08,12,03,22,12.30
2009,08,12,03,23,12.30
2009,08,12,03,24,12.30
2009,08,12,03,25,12.30
2009,08,12,03,26,12.30
2009,08,12,03,27,12.30
2009,08,12,03,28,12.30
2009,08,12,03,29,12.30
2009,08,12,03,30,12.30
2009,08,12,03,31,12.30
2009,08,12,03,32,12.30
2009,08,12,03,33,12.30
2009,08,12,03,34,12.30
2009,08,12,03,35,12.30
2009,08,12,03,36,12.30
2009,08,12,03,37,12.20
2009,08,12,03,38,12.20
2009,08,12,03,39,12.20
2009,08,12,03,40,12.10
2009,08,12,03,41,12.10
2009,08,12,03,42,12.10
2009,08,12,03,43,12.10
2009,08,12,03,44,12.10
2009,08,12,03,45,12.10
2009,08,12,03,46,12.10
2009,08,12,03,47,12.10
2009,08,12,03,48,12.20
2009,08,12,03,49,12.20
2009,08,12,03,50,12.30
2009,08,12,03,51,12.30
2009,08,12,03,52,12.30
2009,08,12,03,53,12.30
2009,08,12,03,54,12.20
2009,08,12,03,55,12.20
2009,08,12,03,56,12.20
2009,08,12,03,57,12.20
2009,08,12,03,58,12.20
2009,08,12,03,59,12.20
2009,08,12,04,00,12.20
2009,08,12,04,01,12.20
2009,08,12,04,02,12.20
2009,08,12,04,03,12.30
2009,08,12,04,04,12.30
2009,08,12,04,05,12.30
2009,08,12,04,06,12.30
2009,08,12,04,07,12.30
2009,08,12,04,08,12.30
2009,08,12,04,09,12.30
2009,08,12,04,10,12.30
2009,08,12,04,11,12.30
2009,08,12,04,12,12.30
2009,08,12,04,13,12.30
2009,08,12,04,14,12.30
2009,08,12,04,15,12.20
2009,08,12,04,16,12.20
2009,08,12,04,17,12.20
2009,08,12,04,18,12.20
2009,08,12,04,19,12.20
2009,08,12,04,20,12.20
2009,08,12,04,21,12.20
2009,08,12,04,22,12.20
2009,08,12,04,23,12.10
2009,08,12,04,24,12.10
2009,08,12,04,25,12.10
2009,08,12,04,26,12.10
2009,08,12,04,27,12.10
2009,08,12,04,28,12.10
2009,08,12,04,29,12.10
2009,08,12,04,30,12.20
2009,08,12,04,31,12.20
2009,08,12,04,32,12.20
2009,08,12,04,33,12.20
2009,08,12,04,34,12.20
2009,08,12,04,35,12.20
2009,08,12,04,36,12.20
2009,08,12,04,37,12.20
2009,08,12,04,38,12.20
2009,08,12,04,39,12.30
2009,08,12,04,40,12.30
2009,08,12,04,41,12.30
2009,08,12,04,42,12.30
2009,08,12,04,43,12.30
2009,08,12,04,44,12.30
2009,08,12,04,45,12.30
2009,08,12,04,46,12.30
2009,08,12,04,47,12.30
2009,08,12,04,48,12.30
2009,08,12,04,49,12.30
2009,08,12,04,50,12.30
2009,08,12,04,51,12.30
2009,08,12,04,52,12.30
2009,08,12,04,53,12.30
2009,08,12,04,54,12.30
2009,08,12,04,55,12.30
2009,08,12,04,56,12.30
2009,08,12,04,57,12.30
2009,08,12,04,58,12.20
2009,08,12,04,59,12.30
2009,08,12,05,00,12.30
2009,08,12,05,01,12.30
2009,08,12,05,02,12.30
2009,08,12,05,03,12.30
2009,08,12,05,04,12.30
2009,08,12,05,05,12.30
2009,08,12,05,06,12.30
2009,08,12,05,07,12.30
2009,08,12,05,08,12.30
2009,08,12,05,09,12.30
2009,08,12,05,10,12.30
2009,08,12,05,11,12.30
2009,08,12,05,12,12.30
2009,08,12,05,13,12.30
2009,08,12,05,14,12.30
2009,08,12,05,15,12.30
2009,08,12,05,16,12.30
2009,08,12,05,17,12.30
2009,08,12,05,18,12.30
2009,08,12,05,19,12.30
2009,08,12,05,20,12.30
2009,08,12,05,21,12.30
2009,08,12,05,22,12.30
2009,08,12,05,23,12.40
2009,08,12,05,24,12.40
2009,08,12,05,25,12.40
2009,08,12,05,26,12.40
2009,08,12,05,27,12.40
2009,08,12,05,28,12.40
2009,08,12,05,29,12.40
2009,08,12,05,30,12.40
2009,08,12,05,31,12.40
2009,08,12,05,32,12.30
2009,08,12,05,33,12.30
2009,08,12,05,34,12.30
2009,08,12,05,35,12.30
2009,08,12,05,36,12.20
2009,08,12,05,37,12.20
2009,08,12,05,38,12.20
2009,08,12,05,39,12.20
2009,08,12,05,40,12.20
2009,08,12,05,41,12.10
2009,08,12,05,42,12.10
2009,08,12,05,43,12.10
2009,08,12,05,44,12.10
2009,08,12,05,45,12.10
2009,08,12,05,46,12.10
2009,08,12,05,47,12.10
2009,08,12,05,48,12.10
2009,08,12,05,49,12.10
2009,08,12,05,50,12.10
2009,08,12,05,51,12.10
2009,08,12,05,52,12.10
2009,08,12,05,53,12.10
2009,08,12,05,54,12.00
2009,08,12,05,55,12.00
2009,08,12,05,56,12.00
2009,08,12,05,57,11.90
2009,08,12,05,58,11.90
2009,08,12,05,59,11.90
2009,08,12,06,00,11.90
2009,08,12,06,01,11.90
2009,08,12,06,02,11.80
2009,08,12,06,03,11.80
2009,08,12,06,04,11.80
2009,08,12,06,05,11.80
2009,08,12,06,06,11.80
2009,08,12,06,07,11.80
2009,08,12,06,08,11.80
2009,08,12,06,09,11.80
2009,08,12,06,10,11.80
2009,08,12,06,11,11.80
2009,08,12,06,12,11.80
2009,08,12,06,13,11.80
2009,08,12,06,14,11.80
2009,08,12,06,15,11.80
2009,08,12,06,16,11.80
2009,08,12,06,17,11.80
2009,08,12,06,18,11.80
2009,08,12,06,19,11.80
2009,08,12,06,20,11.80
2009,08,12,06,21,11.80
2009,08,12,06,22,11.80
2009,08,12,06,23,11.80
2009,08,12,06,24,11.80
2009,08,12,06,25,11.80
2009,08,12,06,26,11.90
2009,08,12,06,27,11.90
2009,08,12,06,28,12.00
2009,08,12,06,29,12.00
2009,08,12,06,30,12.00
2009,08,12,06,31,12.10
2009,08,12,06,32,12.10
2009,08,12,06,33,12.10
2009,08,12,06,34,12.10
2009,08,12,06,35,12.20
2009,08,12,06,36,12.20
2009,08,12,06,37,12.20
2009,08,12,06,38,12.20
2009,08,12,06,39,12.20
2009,08,12,06,40,12.20
2009,08,12,06,41,12.30
2009,08,12,06,42,12.30
2009,08,12,06,43,12.30
2009,08,12,06,44,12.30
2009,08,12,06,45,12.30
2009,08,12,06,46,12.30
2009,08,12,06,47,12.30
2009,08,12,06,48,12.30
2009,08,12,06,49,12.30
2009,08,12,06,50,12.30
2009,08,12,06,51,12.30
2009,08,12,06,52,12.30
2009,08,12,06,53,12.40
2009,08,12,06,54,12.40
2009,08,12,06,55,12.40
2009,08,12,06,56,12.40
2009,08,12,06,57,12.50
2009,08,12,06,58,12.50
2009,08,12,06,59,12.50
2009,08,12,07,00,12.50
2009,08,12,07,01,12.50
2009,08,12,07,02,12.50
2009,08,12,07,03,12.60
2009,08,12,07,04,12.60
2009,08,12,07,05,12.60
2009,08,12,07,06,12.60
2009,08,12,07,07,12.60
2009,08,12,07,08,12.60
2009,08,12,07,09,12.70
2009,08,12,07,10,12.70
2009,08,12,07,11,12.70
2009,08,12,07,12,12.80
2009,08,12,07,13,12.80
2009,08,12,07,14,12.80
2009,08,12,07,15,12.80
2009,08,12,07,16,12.80
2009,08,12,07,17,12.90
2009,08,12,07,18,12.90
2009,08,12,07,19,13.00
2009,08,12,07,20,13.00
2009,08,12,07,21,13.00
2009,08,12,07,22,13.10
2009,08,12,07,23,13.10
2009,08,12,07,24,13.10
2009,08,12,07,25,13.10
2009,08,12,07,26,13.10
2009,08,12,07,27,13.10
2009,08,12,07,28,13.10
2009,08,12,07,29,13.20
2009,08,12,07,30,13.20
2009,08,12,07,31,13.20
2009,08,12,07,32,13.20
2009,08,12,07,33,13.20
2009,08,12,07,34,13.20
2009,08,12,07,35,13.20
2009,08,12,07,36,13.20
2009,08,12,07,37,13.20
2009,08,12,07,38,13.20
2009,08,12,07,39,13.20
2009,08,12,07,40,13.20
2009,08,12,07,41,13.30
2009,08,12,07,42,13.30
2009,08,12,07,43,13.30
2009,08,12,07,44,13.30
2009,08,12,07,45,13.30
2009,08,12,07,46,13.30
2009,08,12,07,47,13.30
2009,08,12,07,48,13.30
2009,08,12,07,49,13.30
2009,08,12,07,50,13.30
2009,08,12,07,51,13.30
2009,08,12,07,52,13.30
2009,08,12,07,53,13.30
2009,08,12,07,54,13.30
2009,08,12,07,55,13.30
2009,08,12,07,56,13.30
2009,08,12,07,57,13.30
2009,08,12,07,58,13.30
2009,08,12,07,59,13.30
2009,08,12,08,00,13.30
2009,08,12,08,01,13.30
2009,08,12,08,02,13.30
2009,08,12,08,03,13.20
2009,08,12,08,04,13.20
2009,08,12,08,05,13.20
2009,08,12,08,06,13.30
2009,08,12,08,07,13.30
2009,08,12,08,08,13.30
2009,08,12,08,09,13.30
2009,08,12,08,10,13.30
2009,08,12,08,11,13.50
2009,08,12,08,12,13.50
2009,08,12,08,13,13.70
2009,08,12,08,14,13.80
2009,08,12,08,15,13.90
2009,08,12,08,16,14.00
2009,08,12,08,17,14.20
2009,08,12,08,18,14.30
2009,08,12,08,19,14.50
2009,08,12,08,20,14.60
2009,08,12,08,21,14.80
2009,08,12,08,22,14.90
2009,08,12,08,23,15.10
2009,08,12,08,24,15.20
2009,08,12,08,25,15.40
2009,08,12,08,26,15.50
2009,08,12,08,27,15.60
2009,08,12,08,28,15.70
2009,08,12,08,29,15.80
2009,08,12,08,30,15.80
2009,08,12,08,31,16.00
2009,08,12,08,32,16.10
2009,08,12,08,33,16.20
2009,08,12,08,34,16.30
2009,08,12,08,35,16.30
2009,08,12,08,36,16.40
2009,08,12,08,37,16.40
2009,08,12,08,38,16.60
2009,08,12,08,39,16.60
2009,08,12,08,40,16.70
2009,08,12,08,41,16.70
2009,08,12,08,42,16.90
2009,08,12,08,43,17.00
2009,08,12,08,44,17.10
2009,08,12,08,45,17.20
2009,08,12,08,46,17.30
2009,08,12,08,47,17.30
2009,08,12,08,48,17.30
2009,08,12,08,49,17.30
2009,08,12,08,50,17.40
2009,08,12,08,51,17.50
2009,08,12,08,52,17.50
2009,08,12,08,53,17.40
2009,08,12,08,54,17.30
2009,08,12,08,55,17.30
2009,08,12,08,56,17.30
2009,08,12,08,57,17.30
2009,08,12,08,58,17.10
2009,08,12,08,59,17.10
2009,08,12,09,00,17.00
2009,08,12,09,01,16.90
2009,08,12,09,02,16.90
2009,08,12,09,03,16.90
2009,08,12,09,04,16.90
2009,08,12,09,05,16.90
2009,08,12,09,06,16.90
2009,08,12,09,07,16.90
2009,08,12,09,08,16.90
2009,08,12,09,09,17.00
2009,08,12,09,10,17.00
2009,08,12,09,11,17.10
2009,08,12,09,12,17.10
2009,08,12,09,13,17.10
2009,08,12,09,14,17.10
2009,08,12,09,15,17.10
2009,08,12,09,16,17.20
2009,08,12,09,17,17.10
2009,08,12,09,18,17.10
2009,08,12,09,19,17.10
2009,08,12,09,20,17.10
2009,08,12,09,21,17.10
2009,08,12,09,22,17.10
2009,08,12,09,23,17.20
2009,08,12,09,24,17.30
2009,08,12,09,25,17.30
2009,08,12,09,26,17.30
2009,08,12,09,27,17.30
2009,08,12,09,28,17.30
2009,08,12,09,29,17.30
2009,08,12,09,30,17.30
2009,08,12,09,31,17.20
2009,08,12,09,32,17.20
2009,08,12,09,33,17.30
2009,08,12,09,34,17.30
2009,08,12,09,35,17.40
2009,08,12,09,36,17.60
2009,08,12,09,37,17.70
2009,08,12,09,38,17.70
2009,08,12,09,39,17.80
2009,08,12,09,40,17.90
2009,08,12,09,41,17.90
2009,08,12,09,42,17.90
2009,08,12,09,43,17.90
2009,08,12,09,44,18.00
2009,08,12,09,45,18.10
2009,08,12,09,46,18.20
2009,08,12,09,47,18.10
2009,08,12,09,48,18.10
2009,08,12,09,49,18.10
2009,08,12,09,50,18.10
2009,08,12,09,51,18.10
2009,08,12,09,52,18.00
2009,08,12,09,53,17.90
2009,08,12,09,54,17.90
2009,08,12,09,55,17.90
2009,08,12,09,56,17.90
2009,08,12,09,57,17.90
2009,08,12,09,58,17.90
2009,08,12,09,59,18.10
2009,08,12,10,00,18.10
2009,08,12,10,01,18.20
2009,08,12,10,02,18.20
2009,08,12,10,03,18.20
2009,08,12,10,04,18.30
2009,08,12,10,05,18.30
2009,08,12,10,06,18.50
2009,08,12,10,07,18.60
2009,08,12,10,08,18.70
2009,08,12,10,09,18.70
2009,08,12,10,10,18.70
2009,08,12,10,11,18.60
2009,08,12,10,12,18.50
2009,08,12,10,13,18.30
2009,08,12,10,14,18.30
2009,08,12,10,15,18.20
2009,08,12,10,16,18.10
2009,08,12,10,17,18.00
2009,08,12,10,18,17.90
2009,08,12,10,19,17.80
2009,08,12,10,20,17.60
2009,08,12,10,21,17.40
2009,08,12,10,22,17.30
2009,08,12,10,23,17.30
2009,08,12,10,24,17.20
2009,08,12,10,25,17.20
2009,08,12,10,26,17.10
2009,08,12,10,27,17.10
2009,08,12,10,28,17.20
2009,08,12,10,29,17.30
2009,08,12,10,30,17.30
2009,08,12,10,31,17.50
2009,08,12,10,32,17.50
2009,08,12,10,33,17.60
2009,08,12,10,34,17.60
2009,08,12,10,35,17.60
2009,08,12,10,36,17.60
2009,08,12,10,37,17.60
2009,08,12,10,38,17.70
2009,08,12,10,39,17.70
2009,08,12,10,40,17.70
2009,08,12,10,41,17.70
2009,08,12,10,42,17.60
2009,08,12,10,43,17.50
2009,08,12,10,44,17.50
2009,08,12,10,45,17.50
2009,08,12,10,46,17.50
2009,08,12,10,47,17.60
2009,08,12,10,48,17.70
2009,08,12,10,49,17.70
2009,08,12,10,50,17.80
2009,08,12,10,51,17.90
2009,08,12,10,52,17.90
2009,08,12,10,53,18.00
2009,08,12,10,54,18.20
2009,08,12,10,55,18.20
2009,08,12,10,56,18.30
2009,08,12,10,57,18.30
2009,08,12,10,58,18.40
2009,08,12,10,59,18.40
2009,08,12,11,00,18.50
2009,08,12,11,01,18.50
2009,08,12,11,02,18.40
2009,08,12,11,03,18.30
2009,08,12,11,04,18.30
2009,08,12,11,05,18.40
2009,08,12,11,06,18.60
2009,08,12,11,07,18.60
2009,08,12,11,08,18.70
2009,08,12,11,09,18.80
2009,08,12,11,10,18.90
2009,08,12,11,11,19.00
2009,08,12,11,12,19.10
2009,08,12,11,13,19.10
2009,08,12,11,14,19.10
2009,08,12,11,15,19.20
2009,08,12,11,16,19.20
2009,08,12,11,17,19.20
2009,08,12,11,18,19.30
2009,08,12,11,19,19.40
2009,08,12,11,20,19.40
2009,08,12,11,21,19.50
2009,08,12,11,22,19.40
2009,08,12,11,23,19.40
2009,08,12,11,24,19.40
2009,08,12,11,25,19.40
2009,08,12,11,26,19.40
2009,08,12,11,27,19.40
2009,08,12,11,28,19.40
2009,08,12,11,29,19.50
2009,08,12,11,30,19.30
2009,08,12,11,31,19.20
2009,08,12,11,32,19.20
2009,08,12,11,33,19.20
2009,08,12,11,34,19.20
2009,08,12,11,35,19.20
2009,08,12,11,36,19.20
2009,08,12,11,37,19.20
2009,08,12,11,38,19.20
2009,08,12,11,39,19.30
2009,08,12,11,40,19.30
2009,08,12,11,41,19.20
2009,08,12,11,42,19.10
2009,08,12,11,43,19.00
2009,08,12,11,44,18.90
2009,08,12,11,45,18.90
2009,08,12,11,46,18.90
2009,08,12,11,47,18.90
2009,08,12,11,48,18.80
2009,08,12,11,49,18.80
2009,08,12,11,50,18.80
2009,08,12,11,51,18.80
2009,08,12,11,52,18.90
2009,08,12,11,53,18.90
2009,08,12,11,54,18.90
2009,08,12,11,55,18.90
2009,08,12,11,56,19.00
2009,08,12,11,57,19.10
2009,08,12,11,58,19.10
2009,08,12,11,59,18.90
2009,08,12,12,00,18.80
2009,08,12,12,01,18.70
2009,08,12,12,02,18.70
2009,08,12,12,03,18.70
2009,08,12,12,04,18.60
2009,08,12,12,05,18.40
2009,08,12,12,06,18.30
2009,08,12,12,07,18.20
2009,08,12,12,08,18.20
2009,08,12,12,09,18.20
2009,08,12,12,10,18.20
2009,08,12,12,11,18.20
2009,08,12,12,12,18.30
2009,08,12,12,13,18.40
2009,08,12,12,14,18.30
2009,08,12,12,15,18.30
2009,08,12,12,16,18.40
2009,08,12,12,17,18.40
2009,08,12,12,18,18.40
2009,08,12,12,19,18.40
2009,08,12,12,20,18.50
2009,08,12,12,21,18.60
2009,08,12,12,22,18.70
2009,08,12,12,23,18.70
2009,08,12,12,24,18.70
2009,08,12,12,25,18.70
2009,08,12,12,26,18.70
2009,08,12,12,27,18.70
2009,08,12,12,28,18.80
2009,08,12,12,29,18.70
2009,08,12,12,30,18.70
2009,08,12,12,31,18.60
2009,08,12,12,32,18.60
2009,08,12,12,33,18.60
2009,08,12,12,34,18.60
2009,08,12,12,35,18.60
2009,08,12,12,36,18.60
2009,08,12,12,37,18.70
2009,08,12,12,38,18.80
2009,08,12,12,39,18.80
2009,08,12,12,40,18.90
2009,08,12,12,41,19.00
2009,08,12,12,42,19.10
2009,08,12,12,43,19.30
2009,08,12,12,44,19.30
2009,08,12,12,45,19.20
2009,08,12,12,46,19.20
2009,08,12,12,47,19.20
2009,08,12,12,48,19.20
2009,08,12,12,49,19.20
2009,08,12,12,50,19.30
2009,08,12,12,51,19.30
2009,08,12,12,52,19.20
2009,08,12,12,53,19.10
2009,08,12,12,54,19.10
2009,08,12,12,55,19.10
2009,08,12,12,56,19.10
2009,08,12,12,57,19.00
2009,08,12,12,58,18.90
2009,08,12,12,59,18.80
2009,08,12,13,00,18.70
2009,08,12,13,01,18.60
2009,08,12,13,02,18.50
2009,08,12,13,03,18.60
2009,08,12,13,04,18.60
2009,08,12,13,05,18.80
2009,08,12,13,06,18.90
2009,08,12,13,07,19.00
2009,08,12,13,08,19.20
2009,08,12,13,09,19.40
2009,08,12,13,10,19.60
2009,08,12,13,11,19.70
2009,08,12,13,12,19.80
2009,08,12,13,13,19.90
2009,08,12,13,14,20.10
2009,08,12,13,15,20.20
2009,08,12,13,16,20.10
2009,08,12,13,17,20.10
2009,08,12,13,18,20.10
2009,08,12,13,19,20.20
2009,08,12,13,20,20.30
2009,08,12,13,21,20.40
2009,08,12,13,22,20.40
2009,08,12,13,23,20.30
2009,08,12,13,24,20.20
2009,08,12,13,25,20.00
2009,08,12,13,26,19.80
2009,08,12,13,27,19.70
2009,08,12,13,28,19.70
2009,08,12,13,29,19.70
2009,08,12,13,30,19.60
2009,08,12,13,31,19.40
2009,08,12,13,32,19.40
2009,08,12,13,33,19.20
2009,08,12,13,34,19.00
2009,08,12,13,35,18.90
2009,08,12,13,36,18.70
2009,08,12,13,37,18.60
2009,08,12,13,38,18.50
2009,08,12,13,39,18.50
2009,08,12,13,40,18.50
2009,08,12,13,41,18.60
2009,08,12,13,42,18.70
2009,08,12,13,43,18.90
2009,08,12,13,44,19.10
2009,08,12,13,45,19.30
2009,08,12,13,46,19.40
2009,08,12,13,47,19.60
2009,08,12,13,48,19.60
2009,08,12,13,49,19.70
2009,08,12,13,50,19.90
2009,08,12,13,51,20.10
2009,08,12,13,52,20.20
2009,08,12,13,53,20.30
2009,08,12,13,54,20.40
2009,08,12,13,55,20.50
2009,08,12,13,56,20.60
2009,08,12,13,57,20.50
2009,08,12,13,58,20.40
2009,08,12,13,59,20.30
2009,08,12,14,00,20.20
2009,08,12,14,01,20.30
2009,08,12,14,02,20.50
2009,08,12,14,03,20.80
2009,08,12,14,04,21.00
2009,08,12,14,05,21.30
2009,08,12,14,06,21.40
2009,08,12,14,07,21.60
2009,08,12,14,08,21.90
2009,08,12,14,09,22.00
2009,08,12,14,10,22.00
2009,08,12,14,11,22.10
2009,08,12,14,12,22.20
2009,08,12,14,13,22.40
2009,08,12,14,14,22.60
2009,08,12,14,15,22.70
2009,08,12,14,16,22.80
2009,08,12,14,17,22.80
2009,08,12,14,18,22.90
2009,08,12,14,19,22.90
2009,08,12,14,20,22.90
2009,08,12,14,21,22.90
2009,08,12,14,22,22.80
2009,08,12,14,23,22.70
2009,08,12,14,24,22.60
2009,08,12,14,25,22.60
2009,08,12,14,26,22.60
2009,08,12,14,27,22.70
2009,08,12,14,28,22.70
2009,08,12,14,29,22.70
2009,08,12,14,30,22.70
2009,08,12,14,31,22.70
2009,08,12,14,32,22.70
2009,08,12,14,33,22.60
2009,08,12,14,34,22.50
2009,08,12,14,35,22.50
2009,08,12,14,36,22.50
2009,08,12,14,37,22.60
2009,08,12,14,38,22.70
2009,08,12,14,39,22.80
2009,08,12,14,40,22.90
2009,08,12,14,41,23.00
2009,08,12,14,42,23.10
2009,08,12,14,43,23.30
2009,08,12,14,44,23.20
2009,08,12,14,45,23.00
2009,08,12,14,46,22.90
2009,08,12,14,47,22.90
2009,08,12,14,48,22.90
2009,08,12,14,49,23.10
2009,08,12,14,50,23.10
2009,08,12,14,51,23.20
2009,08,12,14,52,23.10
2009,08,12,14,53,22.90
2009,08,12,14,54,22.90
2009,08,12,14,55,22.90
2009,08,12,14,56,22.90
2009,08,12,14,57,22.90
2009,08,12,14,58,22.90
2009,08,12,14,59,23.00
2009,08,12,15,00,23.10
2009,08,12,15,01,23.30
2009,08,12,15,02,23.30
2009,08,12,15,03,23.40
2009,08,12,15,04,23.30
2009,08,12,15,05,23.30
2009,08,12,15,06,23.40
2009,08,12,15,07,23.30
2009,08,12,15,08,23.30
2009,08,12,15,09,23.20
2009,08,12,15,10,23.20
2009,08,12,15,11,23.20
2009,08,12,15,12,23.20
2009,08,12,15,13,23.20
2009,08,12,15,14,23.20
2009,08,12,15,15,23.30
2009,08,12,15,16,23.40
2009,08,12,15,17,23.40
2009,08,12,15,18,23.50
2009,08,12,15,19,23.60
2009,08,12,15,20,23.50
2009,08,12,15,21,23.40
2009,08,12,15,22,23.20
2009,08,12,15,23,23.10
2009,08,12,15,24,23.10
2009,08,12,15,25,23.10
2009,08,12,15,26,22.90
2009,08,12,15,27,22.90
2009,08,12,15,28,22.90
2009,08,12,15,29,22.90
2009,08,12,15,30,23.00
2009,08,12,15,31,23.20
2009,08,12,15,32,23.40
2009,08,12,15,33,23.40
2009,08,12,15,34,23.50
2009,08,12,15,35,23.40
2009,08,12,15,36,23.30
2009,08,12,15,37,23.30
2009,08,12,15,38,23.30
2009,08,12,15,39,23.30
2009,08,12,15,40,23.30
2009,08,12,15,41,23.30
2009,08,12,15,42,23.30
2009,08,12,15,43,23.30
2009,08,12,15,44,23.40
2009,08,12,15,45,23.40
2009,08,12,15,46,23.40
2009,08,12,15,47,23.40
2009,08,12,15,48,23.30
2009,08,12,15,49,23.30
2009,08,12,15,50,23.20
2009,08,12,15,51,23.10
2009,08,12,15,52,23.20
2009,08,12,15,53,23.20
2009,08,12,15,54,23.30
2009,08,12,15,55,23.40
2009,08,12,15,56,23.40
2009,08,12,15,57,23.40
2009,08,12,15,58,23.40
2009,08,12,15,59,23.30
2009,08,12,16,00,23.30
2009,08,12,16,01,23.40
2009,08,12,16,02,23.40
2009,08,12,16,03,23.50
2009,08,12,16,04,23.60
2009,08,12,16,05,23.50
2009,08,12,16,06,23.40
2009,08,12,16,07,23.40
2009,08,12,16,08,23.40
2009,08,12,16,09,23.40
2009,08,12,16,10,23.40
2009,08,12,16,11,23.50
2009,08,12,16,12,23.60
2009,08,12,16,13,23.60
2009,08,12,16,14,23.60
2009,08,12,16,15,23.50
2009,08,12,16,16,23.40
2009,08,12,16,17,23.40
2009,08,12,16,18,23.60
2009,08,12,16,19,23.70
2009,08,12,16,20,23.70
2009,08,12,16,21,23.70
2009,08,12,16,22,23.80
2009,08,12,16,23,23.80
2009,08,12,16,24,23.70
2009,08,12,16,25,23.70
2009,08,12,16,26,23.70
2009,08,12,16,27,23.60
2009,08,12,16,28,23.60
2009,08,12,16,29,23.70
2009,08,12,16,30,23.70
2009,08,12,16,31,23.80
2009,08,12,16,32,23.70
2009,08,12,16,33,23.80
2009,08,12,16,34,23.80
2009,08,12,16,35,23.70
2009,08,12,16,36,23.70
2009,08,12,16,37,23.80
2009,08,12,16,38,23.80
2009,08,12,16,39,23.90
2009,08,12,16,40,23.90
2009,08,12,16,41,23.80
2009,08,12,16,42,23.70
2009,08,12,16,43,23.70
2009,08,12,16,44,23.70
2009,08,12,16,45,23.60
2009,08,12,16,46,23.40
2009,08,12,16,47,23.40
2009,08,12,16,48,23.30
2009,08,12,16,49,23.30
2009,08,12,16,50,23.30
2009,08,12,16,51,23.30
2009,08,12,16,52,23.30
2009,08,12,16,53,23.20
2009,08,12,16,54,23.10
2009,08,12,16,55,23.00
2009,08,12,16,56,22.90
2009,08,12,16,57,22.90
2009,08,12,16,58,22.90
2009,08,12,16,59,22.80
2009,08,12,17,00,22.80
2009,08,12,17,01,22.80
2009,08,12,17,02,22.80
2009,08,12,17,03,22.90
2009,08,12,17,04,23.10
2009,08,12,17,05,23.30
2009,08,12,17,06,23.30
2009,08,12,17,07,23.30
2009,08,12,17,08,23.40
2009,08,12,17,09,23.30
2009,08,12,17,10,23.30
2009,08,12,17,11,23.20
2009,08,12,17,12,23.20
2009,08,12,17,13,23.10
2009,08,12,17,14,23.20
2009,08,12,17,15,23.20
2009,08,12,17,16,23.30
2009,08,12,17,17,23.40
2009,08,12,17,18,23.50
2009,08,12,17,19,23.60